INTELSAT 33E DEB, 64394

Orbit data source: Space-Track

INTELSAT 33E DEB, 64394 is space debris in GEO originally from a launch on Wed, 24 Aug 2016 UTC launched from the French Guiana (FRGUI). Debris objects in space refer to the collection of defunct objects orbiting the Earth. Examples of debris include non-operational satellites, rocket bodies, and fragments generated from explosions, collisions, or faulty payload assembly.

Not visible in the next 10 days
Identifier
64394, 2016-053Y
Orbit
GEO
Country
Flag of USUS / ITSO
Related business
Manufacturer
Boeing/ES
Mission
Spacecraft
Bus & Motor
Unknown
Mass
Unknown
Launch date (UTC)
2016-08-24 (10 years ago)
Launch vehicle
Unknown
Launch site
French Guiana (FRGUI)
Object type
Payload
Rocket body
Debris
Shape & HBR
Unknown shape, 1.1 m
Radar Cross Section
RCS unknown

Expand to show TLE details & history
Last TLE update: 13 hours ago

TLE from 13 hours ago
0 INTELSAT 33E DEB
1 64394U 16053Y   26257.76319936 -.00000128  00000-0  00000-0 0  9999
2 64394   1.4911  47.8055 0620111 337.8024  20.1834  1.08359941  7411
Epoch: 2026-09-14T18:19Z
TLE epoch observation values (Epoch: 2026-09-14T18:19:00.424Z)
Latitude
-0°
Longitude
139.96951°
Altitude
31,349.473 km
Speed
3.343 km/s
True Right ascension
03h 13m 50s
True Declination
0° 00' 00"
Sunlit
Object was in daylight at epoch
Visualization orbit readout
Latitude
Unknown
Longitude
Unknown
Altitude
Unknown
Speed
Unknown
Apparent Right ascension
Unknown
Apparent Declination
Unknown
Sunlit
N/A
Visualization observer readout
Local Sidereal Time
00:02:11
Azimuth
Unknown
Elevation
Unknown
Doppler factor
Unknown
Orbital elements
Apogee altitude
36,145.524 km
Perigee altitude
31,179.589 km
Semi-major axis
40,040.693 km
Eccentricity
0.06201
Inclination
1.4911°
RAAN
47.8055°
Arg. of periapsis
337.8024°
True anomaly
22.8259°
Mean anomaly
20.1834°
Eccentric anomaly
21.48469°
Mean motion
0.27089 °/min
Orbital period
1,328.96 mins
BSTAR
0
Loading maneuver chart data...
Computing Atmospheric mass density...
Loading historical data...
Loading historical data...
Loading historical data...
Loading historical data...
Loading historical data...
Loading historical data...
Loading historical data...

Documentation

Showing up to 5 results
|